Location: Unspecified
(0.0000°N, 0.0000°E)
Time: 10:24:16
(UTC+00:00)

MIDAS 4 DEB - Pass Details

Date: 09 November 2025
Orbit: 3271 x 3959 km, 95.8° (Epoch: 26 July)

Event Time Altitude Azimuth Distance (km) Brightness Sun altitude
Exits shadow 19:37:38 30° 95° (E) 5,241 ? -27.1°
Maximum altitude 19:39:42 30° 105° (ESE) 5,238 ? -27.6°
Drops below altitude 10° 19:55:04 10° 159° (SSE) 6,989 ? -31.2°
Sets 20:00:43 0° 168° (SSE) 8,081 ? -32.5°
